When you browse on this site, cookies collect data to enhance your experience and personalize the content and advertising you see.
Visit our Privacy Policy to learn more. By continuing to use the site, you agree to this use of cookies and data.
  • în România
  • Lista ţărilor
  • Pe 7 zile
  • Temperatura apei
  • Meteo pe hartă
  • Widget-uri
  • user-avatar
    Intrare

    Meteo pe oră la Ituni

    Astăzi, 13 Decembrie, Vineri

    Timp Temperatura Precipitaţii Vânt Presiune Umiditate
    00:00 +25°C° 0.6 mm 1 m/s 751 mmHg 98%
    01:00 +25°C° 0.6 mm 1 m/s 751 mmHg 98%
    02:00 +24°C° 0.6 mm 1 m/s 750 mmHg 98%
    03:00 +24°C° 0.1 mm 1 m/s 750 mmHg 98%
    04:00 +22°C° 0.1 mm 0 m/s 750 mmHg 98%
    05:00 +22°C° 0.1 mm 0 m/s 750 mmHg 98%
    06:00 +23°C° 0.1 mm 0 m/s 751 mmHg 97%
    07:00 +25°C° 0.1 mm 1 m/s 751 mmHg 95%
    08:00 +26°C° 0.1 mm 1 m/s 752 mmHg 94%
    09:00 +27°C° 0.6 mm 1 m/s 752 mmHg 89%
    10:00 +28°C° 0.6 mm 1 m/s 752 mmHg 84%
    11:00 +29°C° 0.6 mm 2 m/s 752 mmHg 79%
    12:00 +30°C° 0.6 mm 2 m/s 751 mmHg 76%
    13:00 +31°C° 0.6 mm 2 m/s 750 mmHg 72%
    14:00 +31°C° 0.6 mm 2 m/s 749 mmHg 69%
    15:00 +30°C° 0.1 mm 2 m/s 749 mmHg 72%
    16:00 +30°C° 0.1 mm 2 m/s 749 mmHg 75%
    17:00 +29°C° 0.1 mm 1 m/s 749 mmHg 78%
    18:00 +28°C° 0 mm 1 m/s 749 mmHg 80%
    19:00 +27°C° 0 mm 1 m/s 750 mmHg 83%
    20:00 +26°C° 0 mm 1 m/s 750 mmHg 86%
    21:00 +26°C° 0 mm 1 m/s 750 mmHg 87%
    22:00 +26°C° 0 mm 1 m/s 751 mmHg 89%
    23:00 +26°C° 0 mm 1 m/s 751 mmHg 91%

    Mâine, 14 Decembrie, Sâmbătă

    Timp Temperatura Precipitaţii Vânt Presiune Umiditate
    00:00 +25°C° 0.1 mm 1 m/s 751 mmHg 92%
    01:00 +25°C° 0.1 mm 1 m/s 750 mmHg 94%
    02:00 +25°C° 0.1 mm 1 m/s 750 mmHg 96%
    03:00 +23°C° 0.3 mm 0 m/s 750 mmHg 97%
    04:00 +23°C° 0.3 mm 0 m/s 750 mmHg 98%
    05:00 +22°C° 0.3 mm 0 m/s 750 mmHg 99%
    06:00 +23°C° 0.2 mm 0 m/s 751 mmHg 96%
    07:00 +24°C° 0.2 mm 0 m/s 751 mmHg 94%
    08:00 +25°C° 0.2 mm 0 m/s 752 mmHg 92%
    09:00 +28°C° 0.9 mm 1 m/s 752 mmHg 89%
    10:00 +29°C° 0.9 mm 1 m/s 752 mmHg 87%
    11:00 +29°C° 0.9 mm 1 m/s 752 mmHg 84%
    12:00 +29°C° 1.5 mm 1 m/s 751 mmHg 86%
    13:00 +29°C° 1.5 mm 2 m/s 750 mmHg 88%
    14:00 +29°C° 1.5 mm 2 m/s 749 mmHg 90%
    15:00 +28°C° 0.4 mm 2 m/s 749 mmHg 91%
    16:00 +28°C° 0.4 mm 1 m/s 749 mmHg 92%
    17:00 +27°C° 0.4 mm 1 m/s 749 mmHg 93%
    18:00 +26°C° 0.1 mm 1 m/s 750 mmHg 94%
    19:00 +26°C° 0.1 mm 1 m/s 750 mmHg 96%
    20:00 +26°C° 0.1 mm 1 m/s 751 mmHg 97%
    21:00 +26°C° 1.1 mm 1 m/s 751 mmHg 97%
    22:00 +25°C° 1.1 mm 1 m/s 751 mmHg 97%
    23:00 +25°C° 1.1 mm 1 m/s 752 mmHg 98%

    Poimâine, 15 Decembrie, Duminică

    Timp Temperatura Precipitaţii Vânt Presiune Umiditate
    00:00 +25°C° 0.7 mm 1 m/s 751 mmHg 98%
    01:00 +25°C° 0.7 mm 1 m/s 751 mmHg 98%
    02:00 +25°C° 0.7 mm 1 m/s 750 mmHg 98%
    03:00 +25°C° 0.5 mm 1 m/s 750 mmHg 98%
    04:00 +25°C° 0.5 mm 1 m/s 751 mmHg 97%
    05:00 +25°C° 0.5 mm 1 m/s 751 mmHg 97%
    06:00 +23°C° 0.1 mm 0 m/s 751 mmHg 97%
    07:00 +23°C° 0.1 mm 0 m/s 752 mmHg 96%
    08:00 +24°C° 0.1 mm 0 m/s 752 mmHg 96%
    09:00 +24°C° 0.1 mm 0 m/s 752 mmHg 94%
    10:00 +25°C° 0.1 mm 0 m/s 753 mmHg 92%
    11:00 +25°C° 0.1 mm 0 m/s 753 mmHg 90%
    12:00 +28°C° 0.5 mm 1 m/s 752 mmHg 86%
    13:00 +29°C° 0.5 mm 1 m/s 751 mmHg 81%
    14:00 +30°C° 0.5 mm 2 m/s 750 mmHg 77%
    15:00 +29°C° 0.9 mm 1 m/s 750 mmHg 82%
    16:00 +28°C° 0.9 mm 1 m/s 750 mmHg 87%
    17:00 +27°C° 0.9 mm 1 m/s 750 mmHg 92%
    18:00 +27°C° 0.8 mm 1 m/s 750 mmHg 94%
    19:00 +26°C° 0.8 mm 1 m/s 751 mmHg 96%
    20:00 +25°C° 0.8 mm 1 m/s 751 mmHg 98%
    21:00 +25°C° 0.2 mm 1 m/s 751 mmHg 98%
    22:00 +25°C° 0.2 mm 1 m/s 752 mmHg 98%
    23:00 +25°C° 0.2 mm 1 m/s 752 mmHg 98%

    16 Decembrie, Luni

    Timp Temperatura Precipitaţii Vânt Presiune Umiditate
    00:00 +25°C° 0 mm 1 m/s 751 mmHg 99%
    01:00 +22°C° 0 mm 0 m/s 751 mmHg 99%
    02:00 +22°C° 0 mm 0 m/s 750 mmHg 99%
    03:00 +22°C° 0.7 mm 0 m/s 750 mmHg 99%
    04:00 +22°C° 0.7 mm 0 m/s 750 mmHg 99%
    05:00 +22°C° 0.7 mm 0 m/s 750 mmHg 99%
    06:00 +23°C° 1.7 mm 0 m/s 751 mmHg 98%
    07:00 +23°C° 1.7 mm 0 m/s 751 mmHg 97%
    08:00 +24°C° 1.7 mm 0 m/s 752 mmHg 96%
    09:00 +26°C° 2.2 mm 1 m/s 752 mmHg 96%
    10:00 +26°C° 2.2 mm 1 m/s 752 mmHg 96%
    11:00 +27°C° 2.2 mm 1 m/s 752 mmHg 95%
    12:00 +27°C° 1.1 mm 2 m/s 751 mmHg 95%
    13:00 +27°C° 1.1 mm 2 m/s 750 mmHg 94%
    14:00 +27°C° 1.1 mm 2 m/s 750 mmHg 94%
    15:00 +27°C° 0.3 mm 2 m/s 750 mmHg 94%
    16:00 +27°C° 0.3 mm 2 m/s 749 mmHg 94%
    17:00 +26°C° 0.3 mm 2 m/s 749 mmHg 94%
    18:00 +26°C° 0.2 mm 1 m/s 750 mmHg 95%
    19:00 +25°C° 0.2 mm 1 m/s 751 mmHg 96%
    20:00 +25°C° 0.2 mm 1 m/s 751 mmHg 97%
    21:00 +25°C° 0 mm 1 m/s 751 mmHg 96%
    22:00 +25°C° 0 mm 1 m/s 752 mmHg 96%
    23:00 +25°C° 0 mm 1 m/s 752 mmHg 96%

    17 Decembrie, Marţi

    Timp Temperatura Precipitaţii Vânt Presiune Umiditate
    00:00 +25°C° 0.1 mm 1 m/s 751 mmHg 96%
    01:00 +25°C° 0.1 mm 1 m/s 751 mmHg 97%
    02:00 +24°C° 0.1 mm 1 m/s 751 mmHg 97%
    03:00 +24°C° 0.1 mm 1 m/s 751 mmHg 97%
    04:00 +24°C° 0.1 mm 1 m/s 751 mmHg 97%
    05:00 +24°C° 0.1 mm 1 m/s 751 mmHg 98%
    06:00 +24°C° 0 mm 1 m/s 751 mmHg 95%
    07:00 +25°C° 0 mm 1 m/s 752 mmHg 93%
    08:00 +26°C° 0 mm 1 m/s 752 mmHg 90%
    09:00 +28°C° 0.1 mm 1 m/s 752 mmHg 80%
    10:00 +30°C° 0.1 mm 2 m/s 752 mmHg 71%
    11:00 +31°C° 0.1 mm 2 m/s 752 mmHg 61%
    12:00 +31°C° 0.3 mm 2 m/s 751 mmHg 61%
    13:00 +31°C° 0.3 mm 2 m/s 750 mmHg 61%
    14:00 +31°C° 0.3 mm 3 m/s 749 mmHg 61%
    15:00 +30°C° 0.2 mm 2 m/s 749 mmHg 66%
    16:00 +29°C° 0.2 mm 2 m/s 749 mmHg 71%
    17:00 +28°C° 0.2 mm 2 m/s 749 mmHg 77%
    18:00 +27°C° 0 mm 1 m/s 749 mmHg 82%
    19:00 +26°C° 0 mm 1 m/s 750 mmHg 88%
    20:00 +24°C° 0 mm 1 m/s 751 mmHg 93%
    21:00 +24°C° 0 mm 1 m/s 751 mmHg 95%
    22:00 +24°C° 0 mm 1 m/s 751 mmHg 96%
    23:00 +24°C° 0 mm 1 m/s 751 mmHg 98%

    18 Decembrie, Miercuri

    Timp Temperatura Precipitaţii Vânt Presiune Umiditate
    00:00 +23°C° 0 mm 1 m/s 751 mmHg 98%
    01:00 +21°C° 0 mm 0 m/s 751 mmHg 98%
    02:00 +21°C° 0 mm 0 m/s 750 mmHg 99%
    03:00 +21°C° 0 mm 0 m/s 750 mmHg 99%
    04:00 +21°C° 0 mm 0 m/s 750 mmHg 99%
    05:00 +21°C° 0 mm 0 m/s 751 mmHg 99%
    06:00 +22°C° 0 mm 0 m/s 751 mmHg 95%
    07:00 +24°C° 0 mm 0 m/s 752 mmHg 91%
    08:00 +25°C° 0 mm 0 m/s 752 mmHg 87%
    09:00 +28°C° 0.2 mm 1 m/s 752 mmHg 80%
    10:00 +30°C° 0.2 mm 1 m/s 752 mmHg 72%
    11:00 +31°C° 0.2 mm 2 m/s 752 mmHg 65%
    12:00 +31°C° 0.8 mm 2 m/s 751 mmHg 70%
    13:00 +30°C° 0.8 mm 2 m/s 750 mmHg 75%
    14:00 +30°C° 0.8 mm 2 m/s 749 mmHg 80%
    15:00 +29°C° 0.8 mm 2 m/s 749 mmHg 84%
    16:00 +28°C° 0.8 mm 2 m/s 749 mmHg 88%
    17:00 +27°C° 0.8 mm 1 m/s 749 mmHg 92%
    18:00 +26°C° 0.1 mm 1 m/s 750 mmHg 94%
    19:00 +25°C° 0.1 mm 1 m/s 750 mmHg 95%
    20:00 +25°C° 0.1 mm 1 m/s 751 mmHg 97%
    21:00 +24°C° 0.4 mm 1 m/s 751 mmHg 98%
    22:00 +24°C° 0.4 mm 1 m/s 751 mmHg 98%
    23:00 +24°C° 0.4 mm 1 m/s 751 mmHg 99%
    Arată mai mult